2020-03-06 00:08:13 r, 00.00m,0000563710Hz,0000000000c,0000000.000s, 020.9C,00002195
2020-03-06 00:18:16 r, 00.00m,0000563747Hz,0000000000c,0000000.000s, 021.2C,00002195
2020-03-06 00:28:13 r, 00.00m,0000563673Hz,0000000000c,0000000.000s, 021.2C,00002195
2020-03-06 00:38:13 r, 00.00m,0000563760Hz,0000000000c,0000000.000s, 021.2C,00002195
2020-03-06 00:48:16 r, 00.00m,0000563677Hz,0000000000c,0000000.000s, 021.2C,00002195
2020-03-06 00:58:14 r, 00.00m,0000563646Hz,0000000000c,0000000.000s, 020.9C,00002195
2020-03-06 01:08:16 r, 00.00m,0000563619Hz,0000000000c,0000000.000s, 020.6C,00002195
2020-03-06 01:18:14 r, 00.00m,0000563631Hz,0000000000c,0000000.000s, 020.3C,00002195
2020-03-06 01:28:13 r, 00.00m,0000563517Hz,0000000000c,0000000.000s, 020.3C,00002195
2020-03-06 01:38:13 r, 00.00m,0000563399Hz,0000000000c,0000000.000s, 019.6C,00002195
2020-03-06 01:48:13 r, 00.00m,0000563331Hz,0000000000c,0000000.000s, 019.3C,00002195
2020-03-06 01:58:16 r, 00.00m,0000563359Hz,0000000000c,0000000.000s, 019.0C,00002195
2020-03-06 02:08:13 r, 00.00m,0000563241Hz,0000000000c,0000000.000s, 018.6C,00002195
2020-03-06 02:18:13 r, 00.00m,0000563301Hz,0000000000c,0000000.000s, 018.3C,00002195
2020-03-06 02:28:16 r, 00.00m,0000563266Hz,0000000000c,0000000.000s, 018.3C,00002195
2020-03-06 02:38:13 r, 00.00m,0000563209Hz,0000000000c,0000000.000s, 018.0C,00002195
2020-03-06 02:48:13 r, 00.00m,0000402526Hz,0000000000c,0000000.000s, 017.4C,00002195
2020-03-06 02:58:13 r, 06.52m,0000220040Hz,0000000000c,0000000.000s, 017.4C,00002195
2020-03-06 03:08:13 r, 07.14m,0000124249Hz,0000000000c,0000000.000s, 016.7C,00002195
2020-03-06 03:18:13 r, 07.99m,0000056709Hz,0000000000c,0000000.000s, 016.4C,00002195
2020-03-06 03:28:14 r, 09.25m,0000017915Hz,0000000000c,0000000.000s, 016.1C,00002195
2020-03-06 03:38:13 r, 11.02m,0000003471Hz,0000000000c,0000000.000s, 016.1C,00002195
2020-03-06 03:48:13 r, 13.06m,0000000528Hz,0000000000c,0000000.000s, 016.1C,00002195
2020-03-06 03:58:14 r, 15.12m,0000000079Hz,0000005818c,0000000.013s, 016.1C,00002195
2020-03-06 04:08:13 r, 16.31m,0000000026Hz,0000017459c,0000000.038s, 016.1C,00002195
2020-03-06 04:18:13 r, 16.52m,0000000022Hz,0000021192c,0000000.046s, 016.1C,00002195
2020-03-06 04:28:16 r, 16.49m,0000000022Hz,0000020704c,0000000.045s, 016.1C,00002195
2020-03-06 04:38:13 r, 16.47m,0000000022Hz,0000020218c,0000000.044s, 016.1C,00002195
2020-03-06 04:48:13 r, 15.96m,0000000036Hz,0000012629c,0000000.027s, 015.7C,00002195
2020-03-06 04:58:14 r, 15.75m,0000000045Hz,0000010396c,0000000.023s, 016.1C,00002195
2020-03-06 05:08:13 r, 15.69m,0000000046Hz,0000009902c,0000000.021s, 016.1C,00002195
2020-03-06 05:18:13 r, 15.34m,0000000065Hz,0000007131c,0000000.015s, 016.1C,00002195
2020-03-06 05:28:13 r, 14.65m,0000000123Hz,0000003750c,0000000.008s, 016.1C,00002195
2020-03-06 05:38:13 r, 14.95m,0000000092Hz,0000004995c,0000000.011s, 016.1C,00002195
2020-03-06 05:48:14 r, 16.14m,0000000031Hz,0000014937c,0000000.032s, 016.1C,00002195
2020-03-06 05:58:13 r, 15.77m,0000000045Hz,0000010580c,0000000.023s, 016.1C,00002195
2020-03-06 06:08:13 r, 16.07m,0000000033Hz,0000014006c,0000000.030s, 016.1C,00002195
2020-03-06 06:18:13 r, 15.46m,0000000058Hz,0000007944c,0000000.017s, 016.1C,00002195
2020-03-06 06:28:16 r, 16.12m,0000000032Hz,0000014569c,0000000.032s, 016.1C,00002195
2020-03-06 06:38:13 r, 16.05m,0000000033Hz,0000013720c,0000000.030s, 015.7C,00002195
2020-03-06 06:48:15 r, 16.06m,0000000033Hz,0000013842c,0000000.030s, 015.7C,00002195
2020-03-06 06:58:13 r, 15.99m,0000000035Hz,0000012941c,0000000.028s, 015.7C,00002195
2020-03-06 07:08:13 r, 15.91m,0000000039Hz,0000012051c,0000000.026s, 015.7C,00002195
2020-03-06 07:18:13 r, 15.96m,0000000036Hz,0000012569c,0000000.027s, 015.4C,00002195
2020-03-06 07:28:13 r, 15.91m,0000000038Hz,0000012091c,0000000.026s, 015.4C,00002195
2020-03-06 07:38:13 r, 15.94m,0000000037Hz,0000012425c,0000000.027s, 015.4C,00002195
2020-03-06 07:48:13 r, 15.87m,0000000039Hz,0000011642c,0000000.025s, 015.4C,00002195
2020-03-06 07:58:14 r, 15.83m,0000000041Hz,0000011151c,0000000.024s, 015.4C,00002195
2020-03-06 08:08:13 r, 15.92m,0000000038Hz,0000012194c,0000000.026s, 015.4C,00002195
2020-03-06 08:18:13 r, 16.01m,0000000035Hz,0000013219c,0000000.029s, 015.7C,00002195
2020-03-06 08:28:13 r, 15.76m,0000000043Hz,0000010552c,0000000.023s, 015.7C,00002195
2020-03-06 08:38:16 r, 16.03m,0000000034Hz,0000013457c,0000000.029s, 015.7C,00002195
2020-03-06 08:48:13 r, 16.31m,0000000027Hz,0000017488c,0000000.038s, 015.7C,00002195
2020-03-06 08:58:16 r, 15.91m,0000000039Hz,0000012033c,0000000.026s, 015.7C,00002195
2020-03-06 09:08:13 r, 16.30m,0000000027Hz,0000017308c,0000000.038s, 016.1C,00002195
2020-03-06 09:18:13 r, 15.97m,0000000036Hz,0000012685c,0000000.028s, 016.1C,00002195
2020-03-06 09:28:16 r, 15.82m,0000000041Hz,0000011064c,0000000.024s, 016.1C,00002195
2020-03-06 09:38:13 r, 15.73m,0000000046Hz,0000010189c,0000000.022s, 016.1C,00002195
2020-03-06 09:48:13 r, 16.04m,0000000034Hz,0000013638c,0000000.030s, 016.1C,00002195
2020-03-06 09:58:14 r, 16.18m,0000000030Hz,0000015396c,0000000.033s, 016.1C,00002195
2020-03-06 10:08:16 r, 16.25m,0000000027Hz,0000016445c,0000000.036s, 016.1C,00002195
2020-03-06 10:18:13 r, 16.19m,0000000029Hz,0000015628c,0000000.034s, 016.1C,00002195
2020-03-06 10:28:15 r, 16.19m,0000000029Hz,0000015618c,0000000.034s, 016.1C,00002195
2020-03-06 10:38:13 r, 16.12m,0000000031Hz,0000014592c,0000000.032s, 016.1C,00002195
2020-03-06 10:48:13 r, 16.19m,0000000029Hz,0000015564c,0000000.034s, 016.1C,00002195
2020-03-06 10:58:13 r, 16.35m,0000000025Hz,0000018164c,0000000.039s, 016.1C,00002195
2020-03-06 11:08:13 r, 16.59m,0000000021Hz,0000022653c,0000000.049s, 016.1C,00002195
2020-03-06 11:18:15 r, 16.71m,0000000018Hz,0000025093c,0000000.054s, 016.1C,00002195
2020-03-06 11:28:13 r, 16.62m,0000000020Hz,0000023124c,0000000.050s, 016.1C,00002195
2020-03-06 11:38:15 r, 16.61m,0000000021Hz,0000023023c,0000000.050s, 016.1C,00002195
2020-03-06 11:48:13 r, 16.57m,0000000021Hz,0000022090c,0000000.048s, 016.1C,00002195
2020-03-06 11:58:15 r, 16.57m,0000000021Hz,0000022065c,0000000.048s, 016.1C,00002195
2020-03-06 12:08:13 r, 16.82m,0000000017Hz,0000027825c,0000000.060s, 016.1C,00002195
2020-03-06 12:18:16 r, 16.96m,0000000014Hz,0000031765c,0000000.069s, 016.1C,00002195
2020-03-06 12:28:13 r, 16.80m,0000000016Hz,0000027292c,0000000.059s, 016.1C,00002195
2020-03-06 12:38:16 r, 16.34m,0000000025Hz,0000018047c,0000000.039s, 016.1C,00002195
2020-03-06 12:48:13 r, 16.10m,0000000032Hz,0000014382c,0000000.031s, 016.1C,00002195
2020-03-06 12:58:13 r, 16.06m,0000000033Hz,0000013844c,0000000.030s, 016.1C,00002195
2020-03-06 13:08:16 r, 15.98m,0000000036Hz,0000012913c,0000000.028s, 016.1C,00002195
2020-03-06 13:18:13 r, 15.63m,0000000050Hz,0000009294c,0000000.020s, 016.4C,00002195
2020-03-06 13:28:16 r, 15.88m,0000000039Hz,0000011728c,0000000.025s, 016.4C,00002195
2020-03-06 13:38:14 r, 16.57m,0000000021Hz,0000022218c,0000000.048s, 016.4C,00002195
2020-03-06 13:48:15 r, 16.70m,0000000019Hz,0000024934c,0000000.054s, 016.4C,00002195
2020-03-06 13:58:13 r, 16.96m,0000000015Hz,0000031777c,0000000.069s, 016.4C,00002195
2020-03-06 14:08:15 r, 16.99m,0000000014Hz,0000032421c,0000000.070s, 016.1C,00002195
2020-03-06 14:18:13 r, 17.49m,0000000009Hz,0000051574c,0000000.112s, 016.1C,00002195
2020-03-06 14:28:13 r, 17.51m,0000000009Hz,0000052496c,0000000.114s, 016.1C,00002195
2020-03-06 14:38:13 r, 17.35m,0000000010Hz,0000045167c,0000000.098s, 015.7C,00002195
2020-03-06 14:48:13 r, 17.11m,0000000012Hz,0000036366c,0000000.079s, 015.7C,00002195
2020-03-06 14:58:14 r, 16.72m,0000000019Hz,0000025449c,0000000.055s, 015.7C,00002195
2020-03-06 15:08:13 r, 16.06m,0000000033Hz,0000013865c,0000000.030s, 015.7C,00002195
2020-03-06 15:18:13 r, 14.59m,0000000127Hz,0000003583c,0000000.008s, 015.4C,00002195
2020-03-06 15:28:16 r, 12.58m,0000000826Hz,0000000000c,0000000.000s, 015.4C,00002195
2020-03-06 15:38:14 r, 10.37m,0000006355Hz,0000000000c,0000000.000s, 015.4C,00002195
2020-03-06 15:48:13 r, 08.75m,0000028143Hz,0000000000c,0000000.000s, 015.4C,00002195
2020-03-06 15:58:16 r, 07.48m,0000090318Hz,0000000000c,0000000.000s, 015.4C,00002195
2020-03-06 16:08:13 r, 06.63m,0000199111Hz,0000000000c,0000000.000s, 015.7C,00002195
2020-03-06 16:18:13 r, 06.08m,0000329214Hz,0000000000c,0000000.000s, 016.1C,00002195
2020-03-06 16:28:13 r, 00.00m,0000562952Hz,0000000000c,0000000.000s, 016.1C,00002195
2020-03-06 16:38:15 r, 00.00m,0000562945Hz,0000000000c,0000000.000s, 016.4C,00002195
2020-03-06 16:48:14 r, 00.00m,0000563072Hz,0000000000c,0000000.000s, 016.7C,00002195
2020-03-06 16:58:13 r, 00.00m,0000563175Hz,0000000000c,0000000.000s, 017.0C,00002195
2020-03-06 17:08:16 r, 00.00m,0000563185Hz,0000000000c,0000000.000s, 017.7C,00002195
2020-03-06 17:18:13 r, 00.00m,0000563285Hz,0000000000c,0000000.000s, 018.0C,00002195
2020-03-06 17:28:15 r, 00.00m,0000563272Hz,0000000000c,0000000.000s, 018.6C,00002195
2020-03-06 17:38:13 r, 00.00m,0000563365Hz,0000000000c,0000000.000s, 019.0C,00002195
2020-03-06 17:48:15 r, 00.00m,0000563431Hz,0000000000c,0000000.000s, 019.3C,00002195
2020-03-06 17:58:13 r, 00.00m,0000563446Hz,0000000000c,0000000.000s, 019.6C,00002195
2020-03-06 18:08:15 r, 00.00m,0000563476Hz,0000000000c,0000000.000s, 019.6C,00002195
2020-03-06 18:18:13 r, 00.00m,0000563565Hz,0000000000c,0000000.000s, 019.6C,00002195
2020-03-06 18:28:13 r, 00.00m,0000563566Hz,0000000000c,0000000.000s, 020.6C,00002195
2020-03-06 18:38:14 r, 00.00m,0000563696Hz,0000000000c,0000000.000s, 021.5C,00002195
2020-03-06 18:48:13 r, 00.00m,0000563898Hz,0000000000c,0000000.000s, 022.5C,00002195
2020-03-06 18:58:14 r, 00.00m,0000563876Hz,0000000000c,0000000.000s, 023.5C,00002195
2020-03-06 19:08:15 r, 00.00m,0000564109Hz,0000000000c,0000000.000s, 024.1C,00002195
2020-03-06 19:18:13 r, 00.00m,0000564303Hz,0000000000c,0000000.000s, 026.1C,00002195
2020-03-06 19:28:13 r, 00.00m,0000564396Hz,0000000000c,0000000.000s, 027.0C,00002195
2020-03-06 19:38:16 r, 00.00m,0000564339Hz,0000000000c,0000000.000s, 026.7C,00002195
2020-03-06 19:48:13 r, 00.00m,0000564306Hz,0000000000c,0000000.000s, 026.4C,00002195
2020-03-06 19:58:13 r, 00.00m,0000564250Hz,0000000000c,0000000.000s, 026.4C,00002195
2020-03-06 20:08:13 r, 00.00m,0000564267Hz,0000000000c,0000000.000s, 026.4C,00002195
2020-03-06 20:18:13 r, 00.00m,0000564324Hz,0000000000c,0000000.000s, 026.4C,00002195
2020-03-06 20:28:16 r, 00.00m,0000564550Hz,0000000000c,0000000.000s, 028.0C,00002195
2020-03-06 20:38:13 r, 00.00m,0000564679Hz,0000000000c,0000000.000s, 029.0C,00002195
2020-03-06 20:48:13 r, 00.00m,0000564755Hz,0000000000c,0000000.000s, 029.9C,00002195
2020-03-06 20:58:13 r, 00.00m,0000564791Hz,0000000000c,0000000.000s, 030.9C,00002195
2020-03-06 21:08:15 r, 00.00m,0000564906Hz,0000000000c,0000000.000s, 031.2C,00002195
2020-03-06 21:18:13 r, 00.00m,0000564916Hz,0000000000c,0000000.000s, 030.9C,00002195
2020-03-06 21:28:15 r, 00.00m,0000564804Hz,0000000000c,0000000.000s, 031.2C,00002195
2020-03-06 21:38:13 r, 00.00m,0000564823Hz,0000000000c,0000000.000s, 031.2C,00002195
2020-03-06 21:48:13 r, 00.00m,0000564989Hz,0000000000c,0000000.000s, 032.2C,00002195
2020-03-06 21:58:13 r, 00.00m,0000564940Hz,0000000000c,0000000.000s, 031.9C,00002195
2020-03-06 22:08:13 r, 00.00m,0000564785Hz,0000000000c,0000000.000s, 031.5C,00002195
2020-03-06 22:18:13 r, 00.00m,0000564678Hz,0000000000c,0000000.000s, 030.2C,00002195
2020-03-06 22:28:13 r, 00.00m,0000564630Hz,0000000000c,0000000.000s, 029.3C,00002195
2020-03-06 22:38:14 r, 00.00m,0000564526Hz,0000000000c,0000000.000s, 028.6C,00002195
2020-03-06 22:48:14 r, 00.00m,0000564535Hz,0000000000c,0000000.000s, 028.3C,00002195
2020-03-06 22:58:14 r, 00.00m,0000564512Hz,0000000000c,0000000.000s, 028.3C,00002195
2020-03-06 23:08:13 r, 00.00m,0000564580Hz,0000000000c,0000000.000s, 028.6C,00002195
2020-03-06 23:18:14 r, 00.00m,0000564646Hz,0000000000c,0000000.000s, 029.3C,00002195
2020-03-06 23:28:13 r, 00.00m,0000564610Hz,0000000000c,0000000.000s, 029.3C,00002195
2020-03-06 23:38:14 r, 00.00m,0000564529Hz,0000000000c,0000000.000s, 029.0C,00002195
2020-03-06 23:48:14 r, 00.00m,0000564541Hz,0000000000c,0000000.000s, 029.0C,00002195
2020-03-06 23:58:14 r, 00.00m,0000564397Hz,0000000000c,0000000.000s, 028.0C,00002195
